Regional Weather Roundup
Issued by NWS Midland/Odessa, TX

Home | Current Version | Previous Version | Text Only | Print | Product List | Glossary On
Versions: 1 2 3 4 5 6 7 8 9 10 11 12 13 14 15 16 17 18 19 20 21 22 23 24 25 26 27 28 29 30 31 32 33 34 35 36 37 38 39 40 41 42 43 44 45 46 47 48 49 50
000
ASUS44 KMAF 261310
RWRMAF
MIDLAND AREA WEATHER ROUNDUP
NATIONAL WEATHER SERVICE MIDLAND TX
800 AM CDT THU APR 26 2018

...IN SOUTHWEST TEXAS AND SOUTHEAST NEW MEXICO...

CITY           SKY/WX    TMP DP  RH WIND       PRES   REMARKS
ALPINE         PTCLDY    47  42  84 SW8       30.15S
ANDREWS        FAIR      46  41  83 W7        30.07S
ARTESIA        PTCLDY    45  34  65 SE6       30.03S
BIG SPRING     SUNNY     42  38  86 CALM      30.09R
CARLSBAD       CLEAR     44  35  70 SE6       30.02F
DRYDEN           N/A     49  42  77 W5        30.06R
FORT STOCKTON  CLEAR     48  41  76 SW7       30.08R
GUAD PASS      PTCLDY    46  35  65 W14       30.11S WCI  40
HOBBS          CLEAR     41  37  87 S5        30.06S WCI  38
LAMESA         PTSUNNY   45  39  81 W7        30.07R
MARFA          CLOUDY    37  33  85 CALM      30.15
MIDLAND AIRPK    N/A     48  42  80 W6        30.08R
MIDLAND INTL   CLEAR     45  41  86 W3        30.07R
ODESSA         CLEAR     45  40  82 W3        30.07R
PECOS          CLEAR     40  35  81 CALM      30.07S
PRESIDIO       FAIR      53  41  65 CALM      30.11R
SEMINOLE       CLEAR     44  39  81 W8        30.07S WCI  39
SNYDER         SUNNY     41  40  95 SW6       30.07R WCI  37
WINK           CLOUDY    41  35  79 N3        30.06S
$$
...OTHER STATIONS IN TEXAS...

CITY           SKY/WX    TMP DP  RH WIND       PRES   REMARKS
ABILENE        SUNNY     42  41  96 S5        30.06R WCI  39
AMARILLO       CLOUDY    40  31  70 S10       29.99S WCI  33
AUSTIN         MOSUNNY   54  50  86 CALM      30.08R
BROWNSVILLE    CLOUDY    68  66  93 NW9       30.00R
CORPUS CHRISTI CLOUDY    60  54  80 N13       30.05R
DALLAS FTW     SUNNY     50  44  80 NW9       30.05R
DEL RIO        MOSUNNY   59  48  67 E5        30.08R
EL PASO        PTCLDY    52  37  56 CALM      30.06R
HOUSTON INT    FAIR      56  50  80 NW7       30.05R
LUBBOCK        MOSUNNY   44  35  70 SW9       30.02R WCI  39
SAN ANGELO     MOSUNNY   38  38 100 SW3       30.07F
SAN ANTONIO    PTSUNNY   56  48  74 NE5       30.08R
WACO           SUNNY     47  46  97 NW5       30.08R
WICHITA FALLS  MOSUNNY   39  39 100 CALM      30.03R FOG
$$
...OTHER LOCATIONS IN NEW MEXICO...

CITY           SKY/WX    TMP DP  RH WIND       PRES   REMARKS
ALAMOGORDO     CLEAR     46  34  61 N8        30.09R
ALBUQUERQUE    CLEAR     47  28  47 SE7       30.10R
CANNON AFB     CLEAR     44  41  90 W7        30.04R WCI  40
CLOVIS         CLEAR     45  36  70 SW13      30.03R WCI  39
HOLLOMAN AFB   CLEAR     45  33  61 N3        30.11R
ROSWELL        PTCLDY    44  35  70 SE5       30.01S
RUIDOSO        CLEAR     46  32  57 W10       30.16R
SANTA FE       CLEAR     37  27  67 N8        30.10R WCI  31
TRUTH OR CONSE CLEAR     52  28  39 W7        30.09R
TUCUMCARI      PTCLDY    46  36  68 CALM      29.97R
$$




USA.gov is the U.S. government's official web portal to all federal, state and local government web resources and services.